AirNav   Everest Fuels
 
 1040 users online  

6N5 East 34th Street Heliport
New York, New York, USA

GOING TO NEW YORK?


FAA INFORMATION EFFECTIVE 20 MAY 2021

Location

FAA Identifier: 6N5
Lat/Long: 40-44-33.3660N 073-58-19.4990W
40-44.556100N 073-58.324983W
40.7426017,-73.9720831
(estimated)
Elevation: 10 ft. / 3 m (estimated)
Variation: 13W (1985)
From city: HELIPORT LCTD 5SW OF LAGUARDIA ARPT.
Time zone: UTC -4 (UTC -5 during Standard Time)
Zip code: 10010

Heliport Operations

Heliport use: Open to the public
Control tower: no
ARTCC: NEW YORK CENTER
FSS: NEW YORK FLIGHT SERVICE STATION
NOTAMs facility: ISP (NOTAM-D service available)
Attendance: MON-FRI 0800-2000
Wind indicator: yes
Segmented circle: no
Lights: SS-SR
Beacon: white-green-yellow (heliport)
DUSK-DAWN. BCN LCTD ABOVE OFFICE TRAILER BLO ELEVATED HIGHWAY.
Landing fee: yes

Heliport Communications

CTAF/UNICOM: 123.075
NEW YORK APPROACH: 120.8
NEW YORK DEPARTURE: 120.8
WX AWOS-3PT at JRB (3 nm SW): 128.175 (212-425-1534)
WX ASOS at LGA (5 nm NE): PHONE 718-672-6317
WX ASOS at TEB (8 nm NW): PHONE 201-393-0855
WX ASOS at EWR (9 nm W): PHONE 973-621-2892
WX ASOS at JFK (11 nm SE): 128.725 (718-656-0956)
WX AWOS-3 at LDJ (14 nm SW): 124.025 (908-862-7383)
WX ASOS at CDW (16 nm NW): 135.5 (973-575-4417)

Nearby radio navigation aids

VOR radial/distance  VOR name  Freq  Var
LGAr254/5.3LA GUARDIA VOR/DME113.1012W
TEBr158/7.6TETERBORO VOR/DME108.4011W
CRIr347/8.6CANARSIE VOR/DME112.3011W
JFKr318/11.3KENNEDY VOR/DME115.9012W
COLr029/27.2COLTS NECK VOR/DME115.4011W
DPKr276/30.5DEER PARK VOR/DME117.7012W
SAXr138/32.2SPARTA VORTAC115.7011W
SBJr085/36.3SOLBERG VOR/DME112.9010W
CMKr221/36.8CARMEL VOR/DME116.6012W
BWZr106/38.8BROADWAY VOR/DME114.2011W

 
NDB name  Hdg/Dist  Freq  Var  ID
TORBY129/8.221412WTE - .
CHATHAM103/20.825413WCAT -.-. .- -
BABYLON293/27.127514WBBN -... -... -.

Heliport Services

Fuel available: A1
Parking: tiedowns
Airframe service: NONE
Powerplant service: NONE

Runway Information

Helipad H2

Dimensions: 44 x 44 ft. / 13 x 13 m
ADD'L 7.5 TO BULKHEAD.
Surface: asphalt, in good condition
Runway edge lights: non-standard
Traffic pattern: leftleft

Helipad H3

Dimensions: 44 x 44 ft. / 13 x 13 m
ADD'L 7.5 TO BULKHEAD.
Surface: asphalt, in good condition
Runway edge lights: non-standard
Traffic pattern: leftleft

Helipad H4

Dimensions: 44 x 44 ft. / 13 x 13 m
ADD'L 7.5 TO BULKHEAD.
Surface: asphalt, in good condition
Runway edge lights: non-standard
Traffic pattern: leftleft

Helipad H1

Dimensions: 37 x 37 ft. / 11 x 11 m
ADD'L 7.5 FT TO BULKHEAD.
Surface: asphalt/concrete, in good condition
Runway edge lights: non-standard
NSTD GREEN PERIMETER LGTS.
Latitude: 40-44.556100N
Longitude: 073-58.324983W
Elevation: 10.0 ft.
Traffic pattern: leftleft
Markings: NSTD, in good condition

Heliport Ownership and Management from official FAA records

Ownership: Publicly-owned
Owner: ECONOMIC DEVELOPMENT CORP
1 LIBERTY PLAZA 14TH FLOOR
NEW YORK, NY 10006
Phone 212-889-2551
Manager: PATRICIA WAGNER
ATLANTIC AVIATION, 499 E. 34TH ST. & F.D.R. DR.
NEW YORK, NY 10016
Phone 212-889-6370

Heliport Operational Statistics

Aircraft operations: avg 50/day *
96% air taxi
3% transient general aviation
2% military
* for 12-month period ending 07 September 2017

Additional Remarks

HELIPORT CLSD SAT & SUN.
ALL OPNS OVER EAST RIVER.
NO LATE OR EARLY OPNS AVBL.
CALL AHEAD FOR PARKING.
"NX RAD" WX SYSTEM AVBL.
FOR CD CTC NEW YORK APCH AT 800-645-3206.
A52-H1 RWY H1 LGTD BLDG AND FENCE NW AND SE; ELEVATED HIGHWAY AND BUILDING TO THE WEST, FENCE AND BUILDINGS TO THE NORTH AND SOUTH. RIVER ON THE EAST SIDE,SAILBOATS AND FERRIES POSSIBLY BY EDGE OF PAD.

Instrument Procedures

NOTE: All procedures below are presented as PDF files. If you need a reader for these files, you should download the free Adobe Reader.

NOT FOR NAVIGATION. Please procure official charts for flight.
FAA instrument procedures published for use from 20 May 2021 at 0901Z to 17 June 2021 at 0900z.

NOTE: Special Take-Off Minimums/Departure Procedures apply **CHANGED**   download (442KB)

Other nearby airports with instrument procedures:

KJRA - West 30th St Heliport (2 nm NW)
KJRB - Downtown Manhattan/Wall Street Heliport (3 nm SW)
KLGA - LaGuardia Airport (5 nm NE)
KTEB - Teterboro Airport (8 nm NW)
KEWR - Newark Liberty International Airport (9 nm W)
KJFK - John F Kennedy International Airport (11 nm SE)
KLDJ - Linden Airport (14 nm SW)
KCDW - Essex County Airport (16 nm NW)
N07 - Lincoln Park Airport (20 nm NW)
 
Loc | Ops | Rwys | IFR | FBO | Links
Com | Nav | Svcs | Stats | Notes
Area around 6N5 (East 34th Street Heliport)
 
Road maps at: MapQuest Bing Google
 
Aerial photo
WARNING: Photo may not be current or correct
Aerial photo of 6N5 (East 34th Street Heliport)
Photo by Dave Lu
Photo taken 26-Sep-2012
looking northeast.

Do you have a better or more recent aerial photo of East 34th Street Heliport that you would like to share? If so, please send us your photo.

 
Sectional chart

 
Airport distance calculator
Flying to East 34th Street Heliport? Find the distance to fly.

From to 6N5

Sunrise and sunset
Times for 13-Jun-2021
 Local
(UTC-4)
 Zulu
(UTC)
Morning civil twilight04:5208:52
Sunrise05:2509:25
Sunset20:2700:27
Evening civil twilight21:0001:00

Current date and time
Zulu (UTC)  13-Jun-2021 22:19:59
Local (UTC-4)  13-Jun-2021 18:19:59
 
METAR
KNYC 
2nm N 
132151Z AUTO 00000KT 10SM OVC040 21/14 A2992 RMK AO2 SLP123 T02060139 $
KJRB 
3nm SW 
132156Z AUTO 15008KT 10SM OVC044 21/13 A2990 RMK AO2 SLP125 T02110133
KLGA 
5nm NE 
132151Z 17009KT 10SM BKN040 BKN065 21/12 A2989 RMK AO2 SLP122 T02060122
KTEB 
8nm NW 
132151Z 18005KT 10SM OVC041 21/14 A2988 RMK AO2 SLP118 T02110144 $
KEWR 
10nm W 
132151Z 14005KT 10SM SCT040 BKN060 BKN200 BKN250 23/15 A2988 RMK AO2 SLP119 T02280150 $
KJFK 
11nm SE 
132151Z 18013KT 10SM BKN045 BKN060 19/14 A2991 RMK AO2 SLP129 T01940139
KLDJ 
14nm SW 
132155Z AUTO 15003KT 10SM SCT033 SCT046 OVC055 23/15 A2988 RMK AO2 T02250145
KCDW 
16nm NW 
132153Z 14003KT 10SM OVC033 22/14 A2989 RMK AO2 SLP125 T02220144
TAF
KLGA 
5nm NE 
131953Z 1320/1424 19010KT P6SM BKN050 FM140100 18008KT P6SM BKN050 FM140400 18006KT P6SM VCSH BKN040 FM140900 17005KT 5SM -SHRA BR VCTS BKN040CB FM141200 17006KT 5SM -SHRA BR VCTS OVC030CB FM141400 17008KT 5SM -SHRA BR BKN015 FM141600 16009KT P6SM VCSH BKN015
KTEB 
8nm NW 
131953Z 1320/1424 17006KT P6SM -SHRA OVC035 FM132100 17006KT P6SM BKN040 FM140400 17006KT P6SM VCSH BKN040 FM140900 17004KT 5SM -SHRA BR VCTS BKN040CB FM141100 17004KT 5SM -SHRA BR VCTS BKN015CB FM141300 16006KT 5SM -SHRA BR BKN015 FM141600 16006KT P6SM VCSH BKN015
KEWR 
10nm W 
131953Z 1320/1424 11006KT P6SM VCSH BKN035 FM132100 14006KT P6SM BKN040 FM140400 17005KT P6SM VCSH BKN040 FM140900 VRB03KT 5SM -SHRA BR VCTS BKN040CB FM141200 16005KT 5SM -SHRA BR VCTS OVC012CB FM141600 15007KT P6SM VCSH BKN015 FM142200 14006KT 6SM -SHRA BR BKN025
KJFK 
11nm SE 
131953Z 1320/1424 19010KT P6SM -SHRA SCT045 BKN060 FM132100 18009KT P6SM BKN050 FM140400 18007KT P6SM VCSH BKN040 FM140900 18007KT 5SM -SHRA BR VCTS BKN040CB FM141200 17007KT 5SM -SHRA BR VCTS OVC030CB FM141400 16009KT 5SM -SHRA BR BKN015 FM141800 16010KT P6SM VCSH BKN015
NOTAMs
Click for the latest NOTAMs
NOTAMs are issued by the DoD/FAA and will open in a separate window not controlled by AirNav.

 

 
 

FBO, Fuel Providers, and Aircraft Ground Support

  
 Business Name 
 
 Contact 
 
 Services / Description 
 
Fuel Prices
 
Comments
  
Atlantic Aviation UNICOM 123.075
212-889-2319
212-889-2551
[web site]
[email]
New York City's Award-Winning Heliport
More info and photos of Atlantic Aviation
independent
Jet A
FS $8.15 
 Updated 04-Apr-2019
 
   write
FS=Full service
Update Fuel Prices
 

Would you like to see your business listed on this page?

 If your business provides an interesting product or service to pilots, flight crews, aircraft, or users of the East 34th Street Heliport, you should consider listing it here.  To start the listing process, click on the button below
 
Add a business
 

Other Pages about East 34th Street Heliport

www.amport-aviation.com/...
 
Update a link
 
Copyright © AirNav, LLC. All rights reserved. Privacy Policy  Contact